Hourly Weather Otrar

Today, 6 May, Thursday

Time Temperature Precipitation Wind Pressure Humidity
00:00 +21°C° 0 mm 2 mps 740 mmHg 78%
01:00 +21°C° 0 mm 3 mps 740 mmHg 79%
02:00 +21°C° 0 mm 3 mps 740 mmHg 79%
03:00 +20°C° 0 mm 3 mps 740 mmHg 77%
04:00 +20°C° 0 mm 2 mps 740 mmHg 75%
05:00 +20°C° 0 mm 2 mps 740 mmHg 72%
06:00 +21°C° 0 mm 2 mps 741 mmHg 66%
07:00 +23°C° 0 mm 2 mps 741 mmHg 60%
08:00 +24°C° 0 mm 2 mps 741 mmHg 55%
09:00 +25°C° 0 mm 2 mps 741 mmHg 49%
10:00 +27°C° 0 mm 3 mps 742 mmHg 43%
11:00 +28°C° 0 mm 3 mps 742 mmHg 37%
12:00 +28°C° 0 mm 4 mps 742 mmHg 32%
13:00 +29°C° 0 mm 4 mps 742 mmHg 27%
14:00 +30°C° 0 mm 5 mps 742 mmHg 21%
15:00 +30°C° 0 mm 5 mps 742 mmHg 22%
16:00 +30°C° 0 mm 5 mps 741 mmHg 22%
17:00 +30°C° 0 mm 5 mps 741 mmHg 22%
18:00 +29°C° 0 mm 4 mps 742 mmHg 27%
19:00 +27°C° 0 mm 4 mps 742 mmHg 32%
20:00 +26°C° 0 mm 4 mps 742 mmHg 36%
21:00 +25°C° 0 mm 3 mps 742 mmHg 43%
22:00 +24°C° 0 mm 3 mps 743 mmHg 50%
23:00 +22°C° 0 mm 3 mps 743 mmHg 58%

Tomorrow, 7 May, Friday

Time Temperature Precipitation Wind Pressure Humidity
00:00 +21°C° 0 mm 2 mps 743 mmHg 58%
01:00 +21°C° 0 mm 2 mps 743 mmHg 59%
02:00 +21°C° 0 mm 2 mps 743 mmHg 60%
03:00 +20°C° 0 mm 2 mps 743 mmHg 60%
04:00 +20°C° 0 mm 2 mps 743 mmHg 60%
05:00 +20°C° 0 mm 2 mps 743 mmHg 59%
06:00 +21°C° 0 mm 2 mps 744 mmHg 58%
07:00 +23°C° 0 mm 2 mps 744 mmHg 57%
08:00 +23°C° 0 mm 2 mps 744 mmHg 56%
09:00 +24°C° 0 mm 2 mps 744 mmHg 51%
10:00 +26°C° 0 mm 2 mps 744 mmHg 45%
11:00 +27°C° 0 mm 1 mps 744 mmHg 40%
12:00 +28°C° 0 mm 1 mps 744 mmHg 37%
13:00 +28°C° 0 mm 1 mps 744 mmHg 33%
14:00 +29°C° 0 mm 1 mps 744 mmHg 29%
15:00 +30°C° 0 mm 1 mps 743 mmHg 28%
16:00 +30°C° 0 mm 1 mps 743 mmHg 28%
17:00 +31°C° 0 mm 1 mps 743 mmHg 27%
18:00 +30°C° 0 mm 2 mps 743 mmHg 29%
19:00 +29°C° 0 mm 2 mps 743 mmHg 31%
20:00 +28°C° 0 mm 2 mps 743 mmHg 33%
21:00 +27°C° 0 mm 2 mps 743 mmHg 35%
22:00 +26°C° 0 mm 2 mps 743 mmHg 36%
23:00 +26°C° 0 mm 2 mps 743 mmHg 38%

Day after tomorrow, 8 May, Saturday

Time Temperature Precipitation Wind Pressure Humidity
00:00 +25°C° 0 mm 2 mps 743 mmHg 39%
01:00 +24°C° 0 mm 2 mps 743 mmHg 41%
02:00 +24°C° 0 mm 2 mps 743 mmHg 43%
03:00 +23°C° 0 mm 2 mps 743 mmHg 44%
04:00 +23°C° 0 mm 2 mps 743 mmHg 46%
05:00 +21°C° 0 mm 2 mps 743 mmHg 48%
06:00 +23°C° 0 mm 2 mps 743 mmHg 45%
07:00 +25°C° 0 mm 2 mps 744 mmHg 42%
08:00 +26°C° 0 mm 1 mps 744 mmHg 40%
09:00 +28°C° 0 mm 1 mps 744 mmHg 35%
10:00 +30°C° 0 mm 1 mps 744 mmHg 31%
11:00 +29°C° 0 mm 0 mps 744 mmHg 27%
12:00 +30°C° 0 mm 0 mps 743 mmHg 25%
13:00 +30°C° 0 mm 0 mps 743 mmHg 23%
14:00 +33°C° 0 mm 1 mps 743 mmHg 22%
15:00 +33°C° 0 mm 1 mps 742 mmHg 21%
16:00 +33°C° 0 mm 1 mps 742 mmHg 21%
17:00 +34°C° 0 mm 1 mps 742 mmHg 20%
18:00 +34°C° 0 mm 2 mps 742 mmHg 22%
19:00 +32°C° 0 mm 2 mps 742 mmHg 23%
20:00 +31°C° 0 mm 2 mps 742 mmHg 25%
21:00 +30°C° 0 mm 2 mps 742 mmHg 27%
22:00 +29°C° 0 mm 2 mps 741 mmHg 28%
23:00 +28°C° 0 mm 2 mps 741 mmHg 30%

9 May, Sunday

Time Temperature Precipitation Wind Pressure Humidity
00:00 +27°C° 0 mm 2 mps 741 mmHg 31%
01:00 +27°C° 0 mm 2 mps 741 mmHg 32%
02:00 +26°C° 0 mm 3 mps 740 mmHg 33%
03:00 +25°C° 0 mm 3 mps 740 mmHg 35%
04:00 +23°C° 0 mm 4 mps 741 mmHg 37%
05:00 +22°C° 0 mm 5 mps 741 mmHg 39%
06:00 +22°C° 0 mm 7 mps 741 mmHg 39%
07:00 +23°C° 0 mm 8 mps 742 mmHg 39%
08:00 +23°C° 0 mm 10 mps 742 mmHg 39%
09:00 +23°C° 0.1 mm 8 mps 742 mmHg 41%
10:00 +23°C° 0.1 mm 6 mps 743 mmHg 44%
11:00 +23°C° 0.1 mm 4 mps 743 mmHg 46%
12:00 +26°C° 0 mm 4 mps 743 mmHg 44%
13:00 +27°C° 0 mm 4 mps 743 mmHg 41%
14:00 +29°C° 0 mm 4 mps 742 mmHg 38%
15:00 +29°C° 0 mm 5 mps 742 mmHg 34%
16:00 +29°C° 0 mm 5 mps 742 mmHg 29%
17:00 +29°C° 0 mm 5 mps 742 mmHg 25%
18:00 +28°C° 0 mm 4 mps 742 mmHg 26%
19:00 +27°C° 0 mm 3 mps 742 mmHg 26%
20:00 +25°C° 0 mm 3 mps 742 mmHg 27%
21:00 +25°C° 0 mm 3 mps 742 mmHg 29%
22:00 +24°C° 0 mm 3 mps 742 mmHg 32%
23:00 +22°C° 0 mm 3 mps 742 mmHg 34%

10 May, Monday

Time Temperature Precipitation Wind Pressure Humidity
00:00 +22°C° 0 mm 3 mps 742 mmHg 36%
01:00 +21°C° 0 mm 3 mps 742 mmHg 37%
02:00 +20°C° 0 mm 3 mps 742 mmHg 39%
03:00 +20°C° 0 mm 3 mps 742 mmHg 40%
04:00 +19°C° 0 mm 2 mps 742 mmHg 42%
05:00 +18°C° 0 mm 2 mps 742 mmHg 44%
06:00 +19°C° 0 mm 2 mps 742 mmHg 40%
07:00 +20°C° 0 mm 2 mps 743 mmHg 36%
08:00 +22°C° 0 mm 3 mps 743 mmHg 32%
09:00 +24°C° 0 mm 3 mps 743 mmHg 28%
10:00 +26°C° 0 mm 3 mps 742 mmHg 24%
11:00 +27°C° 0 mm 4 mps 742 mmHg 20%
12:00 +27°C° 0 mm 4 mps 742 mmHg 19%
13:00 +28°C° 0 mm 4 mps 742 mmHg 18%
14:00 +28°C° 0 mm 4 mps 742 mmHg 17%
15:00 +28°C° 0 mm 4 mps 742 mmHg 17%
16:00 +28°C° 0 mm 5 mps 741 mmHg 17%
17:00 +29°C° 0 mm 5 mps 741 mmHg 17%
18:00 +27°C° 0 mm 5 mps 741 mmHg 21%
19:00 +25°C° 0 mm 5 mps 742 mmHg 26%
20:00 +23°C° 0 mm 5 mps 742 mmHg 30%
21:00 +22°C° 0 mm 4 mps 742 mmHg 32%
22:00 +21°C° 0 mm 3 mps 742 mmHg 35%
23:00 +20°C° 0 mm 2 mps 742 mmHg 37%

11 May, Tuesday

Time Temperature Precipitation Wind Pressure Humidity
00:00 +19°C° 0 mm 2 mps 742 mmHg 38%
01:00 +19°C° 0 mm 2 mps 742 mmHg 39%
02:00 +19°C° 0 mm 1 mps 742 mmHg 40%
03:00 +18°C° 0 mm 2 mps 742 mmHg 41%
04:00 +18°C° 0 mm 2 mps 743 mmHg 42%
05:00 +17°C° 0 mm 2 mps 743 mmHg 43%
06:00 +19°C° 0 mm 2 mps 743 mmHg 40%
07:00 +20°C° 0 mm 2 mps 743 mmHg 38%
08:00 +22°C° 0 mm 3 mps 744 mmHg 36%
09:00 +24°C° 0 mm 2 mps 744 mmHg 33%
10:00 +25°C° 0 mm 2 mps 744 mmHg 31%
11:00 +27°C° 0 mm 2 mps 744 mmHg 28%
12:00 +28°C° 0 mm 2 mps 744 mmHg 26%
13:00 +28°C° 0 mm 2 mps 743 mmHg 25%
14:00 +29°C° 0 mm 2 mps 743 mmHg 23%
15:00 +29°C° 0 mm 3 mps 743 mmHg 23%
16:00 +30°C° 0 mm 3 mps 743 mmHg 23%
17:00 +30°C° 0 mm 3 mps 743 mmHg 23%
18:00 +28°C° 0 mm 4 mps 743 mmHg 26%
19:00 +27°C° 0 mm 5 mps 743 mmHg 29%
20:00 +25°C° 0 mm 5 mps 743 mmHg 33%
21:00 +25°C° 0 mm 5 mps 743 mmHg 34%
22:00 +23°C° 0 mm 4 mps 743 mmHg 35%
23:00 +22°C° 0 mm 4 mps 743 mmHg 36%
Show more

We Need Your Consent

Meteoprog and our Service Providers may store and access personal data such as cookies, device identifiers or other similar technologies on your device and process such data to personalise content and ads, as well as provide social media features and to analyse the traffic.

  • Store and/or access information on your device

    Cookies, device identifiers or other information can be stored or accessed on your device for the purposes indicated above.

  • Personalised ads and content, ad and content measurement, audience insights, and products development

    Ads and content can be personalised based on a profile. More data can be added to better personalise ads and content. Ad and content performance can be measured. Insights about the audience who saw the ads and content can be derived. Such data can be used to develop or improve user’s experience, systems and software.

By clicking ‘I Agree’ you will allow the use of indicated cookies, device identifiers, web beacons or other similar technologies. Your settings can be changed in the browser on your device.

For certain purposes, legitimate interests may be relied on, rather than consent. You can read more about this in our Privacy and Cookie Policy.